Overview Statistics Trail Chart Weather Telemetry Raw packets
 

This is the latest recevied weather packets stored in our database for station/object EA5JMY-10. If no packets are shown the sender has not sent any weather packets the latest 10 day(s).

<< 33 34 35 36 37 38 39 >>
Time Temp. Humidity Pressure Rain* Wind** Luminosity Snow
1787841530 32.78° C 43% 1012.6 hPa - - - -
1787840630 32.78° C 41% 1012.8 hPa - - - -
1787839729 33.33° C 39% 1012.9 hPa - - - -
1787838829 32.78° C 37% 1012.9 hPa - - - -
1787837929 31.67° C 37% 1013.1 hPa - - - -
1787837029 33.89° C 33% 1013 hPa - - - -
1787836129 33.89° C 31% 1013.1 hPa - - - -
1787835229 34.44° C 28% 1012.9 hPa - - - -
1787834329 34.44° C 23% 1013.4 hPa - - - -
1787833429 34.44° C 25% 1013.3 hPa - - - -
1787832528 33.89° C 25% 1013.6 hPa - - - -
1787831922 33.33° C 28% 1013.5 hPa - - - -
1787831357 37.22° C 22% 1013.6 hPa - - - -
1787830457 37.78° C 21% 1013.5 hPa - - - -
1787829557 37.78° C 22% 1013.6 hPa - - - -
1787828657 36.67° C 23% 1013.7 hPa - - - -
1787827756 37.78° C 20% 1013.9 hPa - - - -
1787826856 38.33° C 19% 1013.9 hPa - - - -
1787825956 37.22° C 20% 1014 hPa - - - -
1787825056 34.44° C 24% 1014 hPa - - - -
1787824156 34.44° C 24% 1014.1 hPa - - - -
1787823256 33.89° C 26% 1014.1 hPa - - - -
1787822356 33.89° C 28% 1014 hPa - - - -
1787821456 33.89° C 26% 1013.9 hPa - - - -
1787820555 33.33° C 31% 1013.9 hPa - - - -

* Rain since midnight (hover to see other rain measurements)
** Current wind speed in m/s (hover to see current wind gust speed)